Weather History for Monticello, AR

Change the Weather History Date:

Friday, October 26, 2012

  Actual Average Record
Temperature  
Mean Temperature 58 °F -  
Max Temperature 66 °F 72 °F 87 °F (2004)
Min Temperature 46 °F 47 °F 27 °F (1982)
Degree Days  
Heating Degree Days 7    
Growing Degree Days 8 (Base 50)    
Moisture  
Dew Point 47 °F    
Average Humidity 88    
Maximum Humidity 94    
Minimum Humidity 78    
Precipitation  
Precipitation 0.19 in - - ()
Sea Level Pressure  
Sea Level Pressure 30.13 in    
Wind  
Wind Speed 8 mph (NNE)    
Max Wind Speed 12 mph    
Max Gust Speed 23 mph    
Visibility 8 miles    
Events Rain , Thunderstorm    
Averages and records for this station are not official NWS values.
T = Trace of Precipitation, MM = Missing Value Source: NWS Daily Summary

Daily Weather History Graph

Daily Weather History Graph

Search for Another Location

Airport:

Trip Planner

Search our weather history database for the weather conditions in past years. The results will help you decide how hot, cold, wet, or windy it might be!

Date:

Astronomy

Oct. 26, 2012 Rise Set
Actual Time 7:21 AM CDT 6:20 PM CDT
Civil Twilight 6:55 AM CDT 6:45 PM CDT
Nautical Twilight 6:26 AM CDT 7:14 PM CDT
Astronomical Twilight 5:57 AM CDT 7:43 PM CDT
Moon 4:30 PM CDT (10/26) 4:25 AM CDT (10/26)
Length of Visible Light 11h 49m
Length of Day
10h 58m
Waxing Gibbous, 91% of the Moon is Illuminated
Oct 26
Waxing Gibbous
Oct 29
Full
Nov 6
Last Quarter
Nov 13
New
Nov 20
First Quarter

Hourly Weather History & Observations

Time (CDT) Temp. Windchill Dew Point Humidity Pressure Visibility Wind Dir Wind Speed Gust Speed Precip Events Conditions
12:53 AM 70.0 °F - 63.0 °F 78% 29.96 in 10.0 mi NNW 11.5 mph 20.7 mph 0.00 in   Overcast
1:05 AM 64.4 °F - 60.8 °F 88% 30.00 in 10.0 mi NNW 9.2 mph - 0.00 in Rain Light Rain
1:14 AM 60.8 °F - 57.2 °F 88% 30.01 in 10.0 mi NNE 10.4 mph 23.0 mph 0.00 in Rain Light Rain
1:53 AM 57.9 °F - 55.0 °F 90% 30.03 in 8.0 mi Variable 6.9 mph - 0.02 in Rain Light Rain
2:53 AM 55.0 °F - 53.1 °F 93% 30.03 in 10.0 mi Variable 5.8 mph 20.7 mph 0.07 in Rain Light Rain
3:03 AM 55.4 °F - 53.6 °F 94% 30.04 in 10.0 mi NNE 5.8 mph - 0.00 in Rain Light Rain
3:53 AM 52.0 °F - 50.0 °F 93% 30.03 in 10.0 mi NNE 9.2 mph 20.7 mph 0.01 in Rain Light Rain
4:53 AM 51.1 °F - 48.9 °F 92% 30.05 in 10.0 mi North 6.9 mph 18.4 mph 0.02 in   Overcast
5:39 AM 51.8 °F - 46.4 °F 82% 30.08 in 10.0 mi North 6.9 mph 19.6 mph 0.00 in   Overcast
5:53 AM 50.0 °F - 48.0 °F 93% 30.07 in 5.0 mi NNE 8.1 mph - 0.01 in Rain Light Rain
6:01 AM 50.0 °F - 48.2 °F 94% 30.07 in 10.0 mi North 6.9 mph - 0.00 in Rain Light Rain
6:53 AM 50.0 °F - 46.9 °F 89% 30.09 in 10.0 mi Variable 4.6 mph 16.1 mph 0.02 in   Overcast
7:45 AM 50.0 °F - 46.4 °F 87% 30.10 in 10.0 mi NE 6.9 mph - 0.01 in Thunderstorm Overcast
7:55 AM 50.0 °F - 46.4 °F 87% 30.10 in 10.0 mi NNE 9.2 mph 16.1 mph N/A   Overcast
8:40 AM 50.0 °F - 46.4 °F 87% 30.13 in 7.0 mi Variable 5.8 mph - 0.01 in   Overcast
8:53 AM 48.9 °F - 46.9 °F 93% 30.13 in 4.0 mi Variable 6.9 mph - 0.02 in   Overcast
9:08 AM 48.2 °F - 46.4 °F 93% 30.13 in 5.0 mi NNE 9.2 mph 17.3 mph N/A   Overcast
10:14 AM 48.2 °F - 46.4 °F 93% 30.15 in 3.0 mi NNE 9.2 mph 18.4 mph 0.00 in Rain Light Rain
10:53 AM 48.9 °F - 46.0 °F 90% 30.15 in 7.0 mi NNE 11.5 mph 19.6 mph 0.01 in   Overcast
11:13 AM 50.0 °F - 46.4 °F 87% 30.16 in 7.0 mi North 9.2 mph 20.7 mph N/A   Overcast
11:53 AM 48.9 °F - 46.0 °F 90% 30.18 in 9.0 mi Variable 4.6 mph - N/A   Overcast
12:27 PM 48.2 °F - 44.6 °F 87% 30.19 in 8.0 mi NNE 5.8 mph 18.4 mph N/A   Overcast
12:51 PM 48.2 °F - 46.4 °F 93% 30.16 in 3.0 mi NNE 8.1 mph - 0.00 in Rain Light Rain
12:53 PM 48.9 °F - 46.0 °F 90% 30.15 in 3.0 mi NNE 8.1 mph - 0.00 in Rain Light Rain
1:53 PM 48.0 °F - 45.0 °F 89% 30.19 in 4.0 mi Variable 4.6 mph - 0.00 in Rain Light Rain
2:38 PM 48.2 °F - 44.6 °F 87% 30.15 in 10.0 mi North 10.4 mph 19.6 mph 0.00 in   Overcast
2:53 PM 48.0 °F - 45.0 °F 89% 30.15 in 6.0 mi Variable 6.9 mph - 0.00 in   Overcast
3:00 PM 48.2 °F - 44.6 °F 87% 30.16 in 6.0 mi Variable 6.9 mph 19.6 mph N/A   Overcast
3:16 PM 48.2 °F - 44.6 °F 87% 30.17 in 9.0 mi North 8.1 mph - N/A   Overcast
3:53 PM 46.9 °F - 43.0 °F 86% 30.18 in 7.0 mi North 8.1 mph 20.7 mph N/A   Overcast
4:29 PM 46.4 °F 42.4 °F 42.8 °F 87% 30.18 in 2.5 mi North 8.1 mph - 0.00 in Rain Light Rain
4:47 PM 46.4 °F 42.4 °F 42.8 °F 87% 30.17 in 3.0 mi North 8.1 mph - 0.00 in Rain Light Rain
4:53 PM 46.0 °F 41.9 °F 43.0 °F 89% 30.17 in 5.0 mi North 8.1 mph - 0.01 in   Overcast
5:07 PM 46.4 °F 45.2 °F 42.8 °F 87% 30.17 in 8.0 mi Variable 3.5 mph - N/A   Overcast
5:17 PM 46.4 °F 44.3 °F 42.8 °F 87% 30.17 in 5.0 mi Variable 4.6 mph - N/A   Overcast
5:49 PM 46.4 °F 42.4 °F 42.8 °F 87% 30.18 in 10.0 mi NNE 8.1 mph - N/A   Overcast
5:53 PM 46.0 °F 41.4 °F 42.1 °F 86% 30.18 in 10.0 mi North 9.2 mph - N/A   Overcast
6:53 PM 46.0 °F 41.9 °F 42.1 °F 86% 30.19 in 10.0 mi North 8.1 mph - N/A   Overcast
7:07 PM 46.4 °F 42.9 °F 42.8 °F 87% 30.19 in 10.0 mi North 6.9 mph - N/A   Overcast
8:53 PM 46.9 °F - 42.1 °F 83% 30.20 in 10.0 mi Calm Calm - N/A   Overcast
9:53 PM 46.9 °F - 42.1 °F 83% 30.21 in 10.0 mi Variable 3.5 mph - N/A   Overcast
10:53 PM 48.0 °F - 42.1 °F 80% 30.23 in 10.0 mi Calm Calm - N/A   Overcast
11:53 PM 48.0 °F - 42.1 °F 80% 30.22 in 10.0 mi Calm Calm - N/A   Overcast